Showing default

AE2A, 64591

Orbit data source: Space-Track

AE2A, 64591 is a payload satellite owned by ArkEdge (JP) in SSO that was launched on Mon, 23 Jun 2025 UTC via an FALCON 9 launch vehicle from the Air Force Western Test Range (AFWTR). Payload-class satellites include a variety of spacecraft equipped with specific instruments for various scientific and technological missions. These include communications satellites like Starlink; space stations such as the ISS; scientific satellites like the Hubble; Earth observation satellites from companies like Planet Labs, Umbra, and HawkEye 360; GPS; miniature CubeSats for education and research; and military/defense satellites.

Loading next visibility...
Identifier
64591, 2025-135BR
Orbit
SSO
Country
Flag of JPJP / JPN
Related business
Manufacturer
ArkEdge
Mission
Operational Commercial Imaging
Bus & Motor
CUBESAT 6U, Unknown motor
Mass
~10 kg wet, ~10 kg dry
Launch date (UTC)
2025-06-23 (10 months ago)
Launch vehicle
FALCON 9
Launch site
Air Force Western Test Range (AFWTR)
Object type
Payload
Rocket body
Debris
Shape & HBR
Box + 2 Pan, 0.1 m
Radar Cross Section
0.080 m², Medium (>0.1 m² and < 1m²)

Expand to show TLE details & history
Last TLE update: 4 hours ago

TLE from 4 hours ago
0 AE2A
1 64591U 25135BR  26120.22674468  .00005175  00000-0  45821-3 0  9992
2 64591  97.7632 235.7802 0006519 125.3914 234.7917 14.96681914 46781
Epoch: 2026-04-30T05:26Z
TLE epoch observation values (Epoch: 2026-04-30T05:26:30.740Z)
Latitude
-0.00004°
Longitude
-64.02426°
Altitude
582.822 km
Speed
7.568 km/s
True Right ascension
15h 43m 07s
True Declination
0° 00' 00"
Sunlit
Object was in full shadow at epoch
Visualization orbit readout
Latitude
Unknown
Longitude
Unknown
Altitude
Unknown
Speed
Unknown
Apparent Right ascension
Unknown
Apparent Declination
Unknown
Sunlit
N/A
Visualization observer readout
Local Sidereal Time
17:27:47
Azimuth
Unknown
Elevation
Unknown
Doppler factor
Unknown
Orbital elements
Apogee altitude
578.702 km
Perigee altitude
569.637 km
Semi-major axis
6,952.307 km
Eccentricity
0.00065
Inclination
97.7632°
RAAN
235.7802°
Arg. of periapsis
125.3914°
True anomaly
234.73069°
Mean anomaly
234.7917°
Eccentric anomaly
234.76119°
Mean motion
3.74412 °/min
Orbital period
96.15 mins
BSTAR
0.00045821
Loading maneuver chart data...
Computing Atmospheric mass density...
Loading historical data...
Loading historical data...
Loading historical data...
Loading historical data...
Loading historical data...
Loading historical data...
Loading historical data...

Documentation

Showing up to 5 results
|